When you browse on this site, cookies collect data to enhance your experience and personalize the content and advertising you see.
Visit our Privacy Policy to learn more. By continuing to use the site, you agree to this use of cookies and data.
  • Em Portugal
  • Lista de países
  • Para 7 dias
  • Temperatura da água
  • Mapas de satélite
  • Mapa do tempo
  • Widgets de tempo
  • user-avatar
    Iniciar Sessão

    Previsão horária em Beleck

    Hoje, 18 Novembro, Domingo

    Tempo Temperatura Precipitação Vento Pressão Humidade
    00:00 +14°C° 1.2 mm 4 m/s 766 mmHg 87%
    01:00 +15°C° 1.2 mm 4 m/s 766 mmHg 87%
    02:00 +14°C° 0 mm 4 m/s 766 mmHg 85%
    03:00 +14°C° 0.5 mm 4 m/s 766 mmHg 86%
    04:00 +14°C° 0.5 mm 4 m/s 765 mmHg 86%
    05:00 +14°C° 0.5 mm 4 m/s 765 mmHg 87%
    06:00 +15°C° 0.2 mm 4 m/s 765 mmHg 85%
    07:00 +16°C° 0.2 mm 3 m/s 765 mmHg 84%
    08:00 +16°C° 0 mm 3 m/s 765 mmHg 84%
    09:00 +17°C° 0.2 mm 3 m/s 765 mmHg 83%
    10:00 +17°C° 0.2 mm 3 m/s 764 mmHg 83%
    11:00 +18°C° 0.2 mm 3 m/s 764 mmHg 82%
    12:00 +18°C° 0.2 mm 3 m/s 764 mmHg 81%
    13:00 +18°C° 0.2 mm 3 m/s 764 mmHg 81%
    14:00 +18°C° 0.2 mm 2 m/s 763 mmHg 81%
    15:00 +18°C° 0.2 mm 2 m/s 763 mmHg 83%
    16:00 +17°C° 0.2 mm 2 m/s 763 mmHg 86%
    17:00 +17°C° 0.2 mm 2 m/s 762 mmHg 88%
    18:00 +17°C° 0.2 mm 2 m/s 762 mmHg 88%
    19:00 +17°C° 0.2 mm 2 m/s 762 mmHg 87%
    20:00 +17°C° 0.2 mm 2 m/s 762 mmHg 86%
    21:00 +17°C° 0.1 mm 2 m/s 762 mmHg 85%
    22:00 +17°C° 0.1 mm 2 m/s 762 mmHg 83%
    23:00 +17°C° 0.1 mm 2 m/s 762 mmHg 82%

    Amanhã, 19 Novembro, Segunda-feira

    Tempo Temperatura Precipitação Vento Pressão Humidade
    00:00 +17°C° 0.1 mm 3 m/s 762 mmHg 81%
    01:00 +17°C° 0.1 mm 3 m/s 762 mmHg 80%
    02:00 +17°C° 0.1 mm 3 m/s 762 mmHg 78%
    03:00 +17°C° 0.6 mm 3 m/s 762 mmHg 77%
    04:00 +17°C° 0.6 mm 3 m/s 762 mmHg 75%
    05:00 +17°C° 0.6 mm 3 m/s 762 mmHg 74%
    06:00 +17°C° 0.5 mm 3 m/s 762 mmHg 73%
    07:00 +17°C° 0.5 mm 3 m/s 762 mmHg 72%
    08:00 +17°C° 0.5 mm 2 m/s 762 mmHg 70%
    09:00 +18°C° 0.3 mm 2 m/s 762 mmHg 67%
    10:00 +19°C° 0.3 mm 2 m/s 763 mmHg 63%
    11:00 +20°C° 0.3 mm 2 m/s 763 mmHg 59%
    12:00 +20°C° 0.2 mm 2 m/s 763 mmHg 58%
    13:00 +21°C° 0.2 mm 2 m/s 762 mmHg 58%
    14:00 +21°C° 0.2 mm 2 m/s 762 mmHg 57%
    15:00 +20°C° 0.1 mm 2 m/s 762 mmHg 61%
    16:00 +20°C° 0.1 mm 1 m/s 763 mmHg 65%
    17:00 +19°C° 0.1 mm 1 m/s 763 mmHg 68%
    18:00 +18°C° 0 mm 2 m/s 763 mmHg 69%
    19:00 +18°C° 0 mm 2 m/s 764 mmHg 70%
    20:00 +17°C° 0 mm 2 m/s 764 mmHg 71%
    21:00 +17°C° 0 mm 2 m/s 764 mmHg 71%
    22:00 +17°C° 0 mm 2 m/s 764 mmHg 71%
    23:00 +17°C° 0 mm 2 m/s 765 mmHg 72%

    Depois de amanhã, 20 Novembro, Terça-feira

    Tempo Temperatura Precipitação Vento Pressão Humidade
    00:00 +17°C° 0 mm 2 m/s 765 mmHg 72%
    01:00 +17°C° 0 mm 2 m/s 765 mmHg 73%
    02:00 +17°C° 0 mm 2 m/s 765 mmHg 74%
    03:00 +16°C° 0 mm 2 m/s 765 mmHg 74%
    04:00 +16°C° 0 mm 2 m/s 765 mmHg 75%
    05:00 +16°C° 0 mm 2 m/s 765 mmHg 75%
    06:00 +17°C° 0 mm 2 m/s 765 mmHg 73%
    07:00 +18°C° 0 mm 2 m/s 765 mmHg 71%
    08:00 +18°C° 0 mm 2 m/s 766 mmHg 69%
    09:00 +19°C° 0 mm 2 m/s 766 mmHg 66%
    10:00 +22°C° 0 mm 1 m/s 766 mmHg 63%
    11:00 +23°C° 0 mm 1 m/s 766 mmHg 59%
    12:00 +23°C° 0 mm 1 m/s 765 mmHg 60%
    13:00 +23°C° 0 mm 1 m/s 765 mmHg 60%
    14:00 +23°C° 0 mm 1 m/s 764 mmHg 61%
    15:00 +22°C° 0 mm 1 m/s 764 mmHg 67%
    16:00 +21°C° 0 mm 1 m/s 764 mmHg 73%
    17:00 +20°C° 0 mm 1 m/s 764 mmHg 79%
    18:00 +19°C° 0 mm 1 m/s 764 mmHg 80%
    19:00 +19°C° 0 mm 1 m/s 764 mmHg 80%
    20:00 +19°C° 0 mm 1 m/s 764 mmHg 81%
    21:00 +19°C° 0 mm 1 m/s 764 mmHg 81%
    22:00 +19°C° 0 mm 1 m/s 764 mmHg 81%
    23:00 +19°C° 0 mm 1 m/s 764 mmHg 81%

    21 Novembro, Quarta-feira

    Tempo Temperatura Precipitação Vento Pressão Humidade
    00:00 +19°C° 0 mm 1 m/s 764 mmHg 80%
    01:00 +19°C° 0 mm 1 m/s 764 mmHg 79%
    02:00 +18°C° 0 mm 1 m/s 764 mmHg 77%
    03:00 +18°C° 0 mm 1 m/s 763 mmHg 76%
    04:00 +18°C° 0 mm 1 m/s 763 mmHg 75%
    05:00 +18°C° 0 mm 1 m/s 763 mmHg 74%
    06:00 +19°C° 0 mm 1 m/s 763 mmHg 73%
    07:00 +19°C° 0 mm 1 m/s 763 mmHg 71%
    08:00 +19°C° 0 mm 1 m/s 763 mmHg 70%
    09:00 +20°C° 0.1 mm 1 m/s 763 mmHg 70%
    10:00 +20°C° 0.1 mm 2 m/s 763 mmHg 69%
    11:00 +20°C° 0.1 mm 2 m/s 763 mmHg 69%
    12:00 +20°C° 0.4 mm 2 m/s 762 mmHg 73%
    13:00 +20°C° 0.4 mm 2 m/s 761 mmHg 76%
    14:00 +19°C° 0.4 mm 2 m/s 761 mmHg 79%
    15:00 +19°C° 0.5 mm 2 m/s 761 mmHg 81%
    16:00 +18°C° 0.5 mm 2 m/s 760 mmHg 83%
    17:00 +18°C° 0.5 mm 2 m/s 760 mmHg 86%
    18:00 +18°C° 0.2 mm 2 m/s 761 mmHg 85%
    19:00 +17°C° 0.2 mm 2 m/s 761 mmHg 85%
    20:00 +17°C° 0.2 mm 2 m/s 761 mmHg 84%
    21:00 +17°C° 0.6 mm 2 m/s 761 mmHg 84%
    22:00 +17°C° 0.6 mm 2 m/s 761 mmHg 84%
    23:00 +16°C° 0.6 mm 2 m/s 761 mmHg 84%

    22 Novembro, Quinta-feira

    Tempo Temperatura Precipitação Vento Pressão Humidade
    00:00 +16°C° 0.4 mm 2 m/s 760 mmHg 84%
    01:00 +16°C° 0.4 mm 2 m/s 760 mmHg 85%
    02:00 +16°C° 0.4 mm 3 m/s 760 mmHg 85%
    03:00 +16°C° 0.1 mm 3 m/s 759 mmHg 85%
    04:00 +16°C° 0.1 mm 3 m/s 759 mmHg 85%
    05:00 +16°C° 0.1 mm 3 m/s 759 mmHg 85%
    06:00 +16°C° 0 mm 3 m/s 759 mmHg 83%
    07:00 +17°C° 0 mm 3 m/s 759 mmHg 81%
    08:00 +17°C° 0 mm 3 m/s 760 mmHg 78%
    09:00 +18°C° 0.2 mm 2 m/s 759 mmHg 74%
    10:00 +19°C° 0.2 mm 2 m/s 759 mmHg 69%
    11:00 +20°C° 0.2 mm 2 m/s 759 mmHg 64%
    12:00 +20°C° 0.5 mm 2 m/s 759 mmHg 65%
    13:00 +20°C° 0.5 mm 2 m/s 758 mmHg 65%
    14:00 +21°C° 0.5 mm 1 m/s 758 mmHg 65%
    15:00 +20°C° 0.5 mm 1 m/s 758 mmHg 70%
    16:00 +19°C° 0.5 mm 1 m/s 758 mmHg 76%
    17:00 +18°C° 0.5 mm 1 m/s 758 mmHg 81%
    18:00 +18°C° 0.1 mm 1 m/s 758 mmHg 80%
    19:00 +18°C° 0.1 mm 1 m/s 759 mmHg 79%
    20:00 +17°C° 0.1 mm 2 m/s 759 mmHg 78%
    21:00 +17°C° 0.1 mm 2 m/s 759 mmHg 75%
    22:00 +17°C° 0.1 mm 2 m/s 759 mmHg 73%
    23:00 +17°C° 0.1 mm 2 m/s 759 mmHg 70%

    23 Novembro, Sexta-feira

    Tempo Temperatura Precipitação Vento Pressão Humidade
    00:00 +17°C° 0.1 mm 2 m/s 759 mmHg 68%
    01:00 +17°C° 0.1 mm 2 m/s 759 mmHg 67%
    02:00 +16°C° 0.1 mm 3 m/s 759 mmHg 65%
    03:00 +16°C° 0 mm 3 m/s 759 mmHg 64%
    04:00 +16°C° 0 mm 3 m/s 759 mmHg 63%
    05:00 +16°C° 0 mm 3 m/s 759 mmHg 63%
    06:00 +16°C° 0 mm 3 m/s 759 mmHg 62%
    07:00 +17°C° 0 mm 3 m/s 760 mmHg 61%
    08:00 +17°C° 0 mm 3 m/s 760 mmHg 61%
    09:00 +19°C° 0.1 mm 3 m/s 760 mmHg 56%
    10:00 +20°C° 0.1 mm 3 m/s 760 mmHg 50%
    11:00 +22°C° 0.1 mm 4 m/s 760 mmHg 45%
    12:00 +22°C° 0 mm 4 m/s 760 mmHg 44%
    13:00 +22°C° 0 mm 4 m/s 760 mmHg 43%
    14:00 +23°C° 0 mm 4 m/s 759 mmHg 42%
    15:00 +21°C° 0 mm 3 m/s 760 mmHg 46%
    16:00 +20°C° 0 mm 3 m/s 760 mmHg 50%
    17:00 +19°C° 0 mm 3 m/s 760 mmHg 54%
    18:00 +19°C° 0 mm 4 m/s 761 mmHg 55%
    19:00 +18°C° 0 mm 4 m/s 761 mmHg 57%
    20:00 +17°C° 0 mm 5 m/s 761 mmHg 59%
    21:00 +16°C° 0 mm 5 m/s 762 mmHg 60%
    22:00 +16°C° 0 mm 5 m/s 762 mmHg 61%
    23:00 +16°C° 0 mm 5 m/s 762 mmHg 62%
    Mostrar mais